Location: Trondheim
(63.4170°N, 10.4170°E)
Time: 12:27:53
(UTC+02:00)

Iridium 82 - Visible Passes

Search period start: 05 August 2015 00:00
Search period end: 15 August 2015 00:00
Orbit: 776 x 779 km, 86.4° (Epoch: 04 August)

Date Brightness Start Highest point End Pass type
(mag) Time Alt. Az. Time Alt. Az. Time Alt. Az.
05 Aug 5.7 01:39:56 11° SSW 01:44:54 69° W 01:50:09 10° N visible
05 Aug 7.4 03:22:41 10° WSW 03:26:40 21° NW 03:30:36 10° N visible
05 Aug 7.1 23:27:09 10° ESE 23:31:09 23° ENE 23:35:15 10° NNE visible
06 Aug 5.6 01:06:31 12° S 01:11:19 84° E 01:16:35 10° N visible
06 Aug 7.0 02:48:11 10° WSW 02:52:42 28° WNW 02:57:12 10° N visible
07 Aug 5.8 00:33:05 12° SSE 00:37:48 58° E 00:42:57 10° N visible
07 Aug 6.5 02:13:56 10° SW 02:18:50 39° WNW 02:23:45 10° N visible
07 Aug 6.3 23:59:40 10° SSE 00:04:24 40° E 00:09:17 10° NNE visible
08 Aug 6.0 01:40:08 11° SSW 01:45:04 55° WNW 01:50:15 10° N visible
08 Aug 7.6 03:23:31 10° W 03:27:04 18° NW 03:30:33 10° N visible
08 Aug 6.8 23:26:42 10° SE 23:31:04 28° ENE 23:35:31 10° NNE visible
09 Aug 5.6 01:06:41 13° SSW 01:11:26 79° W 01:16:42 10° N visible
09 Aug 7.3 02:48:49 10° WSW 02:53:03 24° WNW 02:57:13 10° N visible
09 Aug 7.2 22:54:08 10° ESE 22:57:51 20° ENE 23:01:39 10° NNE visible
10 Aug 5.6 00:33:15 13° S 00:37:52 73° E 00:43:06 10° N visible
10 Aug 6.9 02:14:25 10° SW 02:19:07 32° WNW 02:23:48 10° N visible
10 Aug 6.0 23:59:48 12° SSE 00:04:23 50° E 00:09:27 10° NNE visible
11 Aug 6.4 01:40:16 10° SW 01:45:17 45° WNW 01:50:19 10° N visible
11 Aug 7.8 03:24:27 10° W 03:27:31 15° NW 03:30:27 10° NNW visible
11 Aug 6.5 23:26:21 10° SE 23:31:01 35° E 23:35:45 10° NNE visible
12 Aug 5.8 01:06:49 12° SSW 01:11:34 64° WNW 01:16:48 10° N visible
12 Aug 7.6 02:49:34 10° W 02:53:25 20° NW 02:57:12 10° N visible
12 Aug 6.9 22:53:35 10° SE 22:57:44 25° ENE 23:01:57 10° NNE visible
13 Aug 5.6 00:33:21 14° S 00:37:56 89° E 00:43:13 10° N visible
13 Aug 7.2 02:14:59 10° WSW 02:19:25 27° WNW 02:23:49 10° N visible
13 Aug 5.7 23:59:54 13° SSE 00:04:25 63° E 00:09:36 10° N visible
14 Aug 6.7 01:40:41 10° SW 01:45:31 36° WNW 01:50:22 10° N visible
14 Aug 7.9 03:25:35 10° WNW 03:27:58 13° NW 03:30:14 10° NNW visible
14 Aug 6.1 23:26:25 12° SSE 23:30:59 43° E 23:35:56 10° NNE visible
